Date String (YYYY-MM-DD hh:mm:ss) UTC,Instrument flags,absolute air pressure of the measurement (hPa),sample flow rate (lpm),inlet stack bypass flow (lpm),air temperature of the measurement (°C),ambient temperature measured by the external sensor (°C),aerosol sample conditioner tube jacket temperature (°C),OPC LED temperature (°C),internal box temperature (°C),relative humidity of the measurement (%),span deviation,mass concentration of particles derived from Lorenz-Mie calculation of OPC scattering (μg/m³),mass concentration of particles derived from Lorenz-Mie calculation of OPC scattering (μg/m³),mass concentration of particles derived from Lorenz-Mie calculation of OPC scattering (μg/m³)
DateTimeUTC,F1_M11,P_M11,Q1_M11,Q2_M11,T1_M11,T2_M11,T3_M11,T4_M11,T5_M11,U1_M11,ZSPAN_M11,X0_M11,X2_M11,X1_M11
2023-12-18 00:00:00,SystemResetWarning,0835.3,5.00,000.00,026.2,025.3,000.0,034.4,027.5,7.5,0000.0,0004.79,0001.16,0000.70
2023-12-18 00:01:00,SystemResetWarning,0835.4,5.00,000.00,026.2,025.3,000.0,034.4,027.5,7.5,0000.0,0004.62,0001.11,0000.69
2023-12-18 00:02:00,SystemResetWarning,0835.5,5.01,000.00,026.2,025.3,000.0,034.4,027.6,7.5,0000.0,0004.76,0001.13,0000.69
2023-12-18 00:03:00,SystemResetWarning,0835.5,5.00,000.00,026.2,025.3,000.0,034.4,027.6,7.5,0000.0,0004.84,0001.13,0000.69
2023-12-18 00:04:00,SystemResetWarning,0835.5,4.99,000.00,026.2,025.3,000.0,034.4,027.6,7.5,0000.0,0004.85,0001.12,0000.69
2023-12-18 00:05:00,SystemResetWarning,0835.5,5.00,000.00,026.2,025.3,000.0,034.4,027.6,7.5,0000.0,0004.41,0001.17,0000.70
2023-12-18 00:06:00,SystemResetWarning,0835.6,4.99,000.00,026.3,025.3,000.0,034.4,027.6,7.5,0000.0,0003.74,0001.21,0000.71
2023-12-18 00:07:00,SystemResetWarning,0835.6,5.00,000.00,026.3,025.4,000.0,034.5,027.6,7.5,0000.0,0003.89,0001.22,0000.71
2023-12-18 00:08:00,SystemResetWarning,0835.6,5.00,000.00,026.3,025.4,000.0,034.5,027.7,7.5,0000.0,0004.79,0001.27,0000.71
2023-12-18 00:09:00,SystemResetWarning,0835.7,5.00,000.00,026.3,025.4,000.0,034.5,027.7,7.5,0000.0,0004.89,0001.29,0000.71
2023-12-18 00:10:00,SystemResetWarning,0835.8,5.01,000.00,026.3,025.4,000.0,034.5,027.7,7.4,0000.0,0004.56,0001.30,0000.70
2023-12-18 00:11:00,SystemResetWarning,0835.7,5.00,000.00,026.3,025.4,000.0,034.5,027.7,7.5,0000.0,0004.55,0001.33,0000.69
2023-12-18 00:12:00,SystemResetWarning,0835.8,5.00,000.00,026.3,025.4,000.0,034.5,027.7,7.4,0000.0,0005.32,0001.40,0000.69
2023-12-18 00:13:00,SystemResetWarning,0835.8,5.00,000.00,026.3,025.4,000.0,034.5,027.7,7.4,0000.0,0005.66,0001.46,0000.68
2023-12-18 00:14:00,SystemResetWarning,0835.8,5.00,000.00,026.4,025.4,000.0,034.5,027.7,7.4,0000.0,0005.92,0001.52,0000.69
2023-12-18 00:15:00,SystemResetWarning,0835.8,5.00,000.00,026.4,025.4,000.0,034.5,027.7,7.4,0000.0,0006.01,0001.50,0000.67
2023-12-18 00:16:00,SystemResetWarning,0835.8,5.00,000.00,026.4,025.4,000.0,034.6,027.7,7.4,0000.0,0005.77,0001.45,0000.67
2023-12-18 00:17:00,SystemResetWarning,0835.8,5.00,000.00,026.4,025.4,000.0,034.6,027.8,7.4,0000.0,0005.65,0001.43,0000.67
2023-12-18 00:18:00,SystemResetWarning,0835.9,4.99,000.00,026.4,025.5,000.0,034.6,027.8,7.3,0000.0,0006.32,0001.45,0000.67
2023-12-18 00:19:00,SystemResetWarning,0835.9,4.99,000.00,026.4,025.5,000.0,034.6,027.8,7.3,0000.0,0005.50,0001.40,0000.67
2023-12-18 00:20:00,SystemResetWarning,0835.9,5.00,000.00,026.4,025.5,000.0,034.6,027.8,7.3,0000.0,0005.35,0001.39,0000.67
2023-12-18 00:21:00,SystemResetWarning,0836.0,5.00,000.00,026.4,025.5,000.0,034.6,027.8,7.3,0000.0,0005.40,0001.38,0000.66
2023-12-18 00:22:00,SystemResetWarning,0835.9,5.01,000.00,026.4,025.5,000.0,034.6,027.8,7.3,0000.0,0005.25,0001.34,0000.65
2023-12-18 00:23:00,SystemResetWarning,0836.1,4.99,000.00,026.4,025.5,000.0,034.6,027.8,7.3,0000.0,0004.93,0001.29,0000.65
2023-12-18 00:24:00,SystemResetWarning,0836.1,4.98,000.00,026.5,025.5,000.0,034.6,027.8,7.3,0000.0,0005.29,0001.20,0000.65
2023-12-18 00:25:00,SystemResetWarning,0836.1,5.00,000.00,026.5,025.5,000.0,034.6,027.8,7.3,0000.0,0004.99,0001.11,0000.65
2023-12-18 00:26:00,SystemResetWarning,0836.1,5.00,000.00,026.5,025.5,000.0,034.6,027.8,7.3,0000.0,0005.04,0001.12,0000.65
2023-12-18 00:27:00,SystemResetWarning,0836.1,5.01,000.00,026.5,025.5,000.0,034.7,027.8,7.3,0000.0,0005.86,0001.14,0000.66
2023-12-18 00:28:00,SystemResetWarning,0836.1,5.00,000.00,026.5,025.5,000.0,034.7,027.9,7.3,0000.0,0005.76,0001.12,0000.65
2023-12-18 00:29:00,SystemResetWarning,0836.2,5.00,000.00,026.5,025.5,000.0,034.7,027.9,7.3,0000.0,0004.96,0001.09,0000.65
2023-12-18 00:30:00,SystemResetWarning,0836.2,5.00,000.00,026.5,025.6,000.0,034.7,027.9,7.2,0000.0,0005.67,0001.13,0000.65
2023-12-18 00:31:00,SystemResetWarning,0836.2,4.98,000.00,026.5,025.6,000.0,034.7,027.9,7.2,0000.0,0005.75,0001.16,0000.66
2023-12-18 00:32:00,SystemResetWarning,0836.3,4.99,000.00,026.5,025.6,000.0,034.7,027.8,7.3,0000.0,0005.66,0001.17,0000.66
2023-12-18 00:33:00,SystemResetWarning,0836.3,5.01,000.00,026.5,025.6,000.0,034.7,027.8,7.3,0000.0,0005.65,0001.23,0000.68
2023-12-18 00:34:00,SystemResetWarning,0836.3,5.00,000.00,026.5,025.6,000.0,034.7,027.9,7.2,0000.0,0005.42,0001.21,0000.68
2023-12-18 00:35:00,SystemResetWarning,0836.3,5.01,000.00,026.5,025.5,000.0,034.7,027.9,7.2,0000.0,0004.57,0001.22,0000.68
2023-12-18 00:36:00,SystemResetWarning,0836.4,5.00,000.00,026.5,025.5,000.0,034.7,027.9,7.2,0000.0,0005.00,0001.25,0000.68
2023-12-18 00:37:00,SystemResetWarning,0836.4,5.00,000.00,026.5,025.5,000.0,034.7,027.9,7.2,0000.0,0005.07,0001.26,0000.68
2023-12-18 00:38:00,SystemResetWarning,0836.4,4.99,000.00,026.5,025.6,000.0,034.7,027.9,7.2,0000.0,0004.45,0001.26,0000.68
2023-12-18 00:39:00,SystemResetWarning,0836.4,4.99,000.00,026.5,025.6,000.0,034.7,027.9,7.2,0000.0,0004.18,0001.30,0000.69
2023-12-18 00:40:00,SystemResetWarning,0836.4,5.00,000.00,026.5,025.6,000.0,034.7,027.9,7.2,0000.0,0004.27,0001.32,0000.69
2023-12-18 00:41:00,SystemResetWarning,0836.4,4.99,000.00,026.5,025.6,000.0,034.8,027.9,7.2,0000.0,0003.72,0001.28,0000.69
2023-12-18 00:42:00,SystemResetWarning,0836.5,5.01,000.00,026.6,025.6,000.0,034.8,027.9,7.2,0000.0,0003.82,0001.25,0000.68
2023-12-18 00:43:00,SystemResetWarning,0836.5,5.01,000.00,026.6,025.6,000.0,034.8,027.9,7.2,0000.0,0004.28,0001.23,0000.69
2023-12-18 00:44:00,SystemResetWarning,0836.5,5.00,000.00,026.6,025.6,000.0,034.8,027.9,7.2,0000.0,0005.72,0001.17,0000.67
2023-12-18 00:45:00,SystemResetWarning,0836.5,5.00,000.00,026.6,025.6,000.0,034.8,027.9,7.2,0000.0,0006.10,0001.20,0000.68
2023-12-18 00:46:00,SystemResetWarning,0836.5,5.00,000.00,026.6,025.6,000.0,034.8,027.9,7.2,0000.0,0006.20,0001.24,0000.69
2023-12-18 00:47:00,SystemResetWarning,0836.5,5.00,000.00,026.6,025.6,000.0,034.8,027.9,7.2,0000.0,0005.64,0001.23,0000.70
2023-12-18 00:48:00,SystemResetWarning,0836.5,5.00,000.00,026.6,025.6,000.0,034.8,027.9,7.2,0000.0,0006.80,0001.24,0000.71
2023-12-18 00:49:00,SystemResetWarning,0836.5,4.99,000.00,026.6,025.6,000.0,034.8,027.9,7.2,0000.0,0006.95,0001.24,0000.72
2023-12-18 00:50:00,SystemResetWarning,0836.5,5.00,000.00,026.6,025.6,000.0,034.8,027.9,7.2,0000.0,0007.30,0001.22,0000.72
2023-12-18 00:51:00,SystemResetWarning,0836.5,5.01,000.00,026.6,025.6,000.0,034.8,027.9,7.2,0000.0,0007.43,0001.24,0000.73
2023-12-18 00:52:00,SystemResetWarning,0836.6,5.00,000.00,026.6,025.6,000.0,034.8,027.9,7.2,0000.0,0007.34,0001.27,0000.74
2023-12-18 00:53:00,SystemResetWarning,0836.6,5.01,000.00,026.6,025.6,000.0,034.8,027.9,7.2,0000.0,0007.00,0001.27,0000.75
2023-12-18 00:54:00,SystemResetWarning,0836.7,5.00,000.00,026.6,025.6,000.0,034.8,027.9,7.2,0000.0,0006.72,0001.28,0000.75
2023-12-18 00:55:00,SystemResetWarning,0836.6,5.00,000.00,026.6,025.6,000.0,034.8,027.9,7.2,0000.0,0005.04,0001.28,0000.76
2023-12-18 00:56:00,SystemResetWarning,0836.6,5.00,000.00,026.6,025.6,000.0,034.8,027.9,7.2,0000.0,0004.85,0001.27,0000.77
2023-12-18 00:57:00,SystemResetWarning,0836.6,5.00,000.00,026.6,025.5,000.0,034.8,027.9,7.2,0000.0,0004.80,0001.28,0000.78
2023-12-18 00:58:00,SystemResetWarning,0836.6,5.01,000.00,026.6,025.5,000.0,034.8,027.9,7.2,0000.0,0005.63,0001.29,0000.79
2023-12-18 00:59:00,SystemResetWarning,0836.7,5.01,000.00,026.6,025.5,000.0,034.8,027.9,7.2,0000.0,0005.00,0001.33,0000.79
